Location: ??
(35.5052°N, 139.7262°E)
Time: 17:36:56
(UTC+00:00)

Cosmos 1867 - Pass Details

Date: 20 June 2021
Orbit: 773 x 803 km, 65.0° (Epoch: 29 July)

Event Time Altitude Azimuth Distance (km) Brightness Sun altitude
Rises 12:57:26 0° 335° (NNW) 3,317 8.1 -26.0°
Reaches altitude 10° 12:59:56 10° 339° (NNW) 2,383 7.1 -26.2°
Maximum altitude 13:05:20 56° 58° (ENE) 946 3.9 -26.7°
Enters shadow 13:05:37 55° 71° (ENE) 953 3.8 -26.7°
